Weather in Azadogly

Russia / Republic of Dagestan     41°49′45″N   48°26′46″E
В апреле 2022 года жителям России запретили посещать сайт meteo.paraplan.net по решению Генеральной прокуратуры. Аудитория сайта уменьшилась в 10 раз. Владельцы сайта не видят смысла в поддержке погодного сервера в таких условиях. Сайт будет закрыт в октябре.
temp.,
°C
wind,
m/s
gust,
m/s
humid.,
%
clouds,
%
prec.,
mm/h
press.,
hPa
HPBL,
m
4 october, tue
tue400:00+18ne119115 0.0 101511
03:00+17ssw11930 0.0 101511
06:00+16sse22945 0.0 101521
09:00+23se34623 0.0 1014841
12:00+25e76520 0.0 1013948
15:00+24e65500 0.0 1013646
18:00+19nnw22790 0.0 101429
21:00+18wnw59810 0.0 1015208
5 october, wed
wed500:00+17wsw22790 0.0 101525
03:00+17wsw22770 0.0 101712
06:00+17ssw11710 0.0 101911
09:00+24nne22550 0.0 1019675
12:00+25ne53550 0.0 1018894
15:00+23ene32600 0.0 1018665
18:00+18wnw23915 0.0 102147
21:00+19wsw34778 0.0 102259
6 october, thu
thu600:00+20wnw336754 0.0 102236
03:00+18nnw248295 0.0 102395
06:00+17nnw378698 0.0 1024240
09:00+21n666461 0.0 1024978
12:00+21nne656384 0.0 10221047
15:00+19n667295 0.0 1022830
18:00+18nnw5780100 0.1 1024609
21:00+17nw5983100 0.7 1024749
7 october, fri
fri700:00+17nw4877100 0.4 1024657
03:00+17nw4778100 0.5 1025608
06:00+16nw3676100 0.1 1025422
09:00+18nnw3468100 0.1 1025624
12:00+18n4478100 0.2 1025646
15:00+17ne2382100 0.7 1024422
18:00+17n1182100 0.1 102534
21:00+17ene0081100 0.1 102517
8 october, sat
sat800:00+16se118194 0.0 102416
03:00+16sse2280100 0.0 102466
06:00+16sse2382100 0.0 102496
09:00+19se356185 0.0 1024911
12:00+21ese7753100 0.0 10221505
15:00+20ese775799 0.0 10201005
18:00+16se48763 0.0 1020236
21:00+14s22855 0.0 101931